sat.trackr.live / text

‹ back to catalog

STARLINK-4077

NORAD 53154 · 2022-083Y

PAYLOAD ACTIVE UNKNOWN

§ Identity

Operator
Country
US
Launch date
2022-07-17
Launch site
AFETR
Launch vehicle
Mass (kg)
RCS (m²)

Purposes: comms

External: N2YO · Heavens-Above · Gunter

§ Orbital elements

Epoch: 2026-05-24T09:13:23.925216Z

Period
95.44 min
Inclination
53.2162°
Eccentricity
0.0001015
Mean motion
15.08838809 rev/d
Perigee alt
539.0 km
Apogee alt
540.4 km
Semi-major
6,917.9 km
B*
2.2294e-5
RAAN
184.3140°
Arg perigee
75.4830°
Mean anomaly
284.6274°
Rev number
21,278

§ Raw data

STARLINK-40771 53154U 22083Y   26144.38430469  .00000067  00000+0  22294-4 0  99922 53154  53.2162 184.3140 0001015  75.4830 284.6274 15.08838809212787

JSON: /api/v1/satellites/53154 · /tle

For live sub-satellite position, see the globe view (requires WebGL).

§ Visibility from observer

Set your observer location to see the next 7 days of passes ≥ 10°. The values pass through the URL so the page stays shareable.

No JS? Fill the form by hand. The geolocation button needs JavaScript.